STARLINK-34594, 65088

Orbit data source: Space-Track

STARLINK-34594, 65088 is a payload satellite owned by SpaceX/Seattle (US) in LEO that was launched on Mon, 04 Aug 2025 UTC via an FALCON 9 launch vehicle from the Air Force Eastern Test Range (AFETR). Payload-class satellites include a variety of spacecraft equipped with specific instruments for various scientific and technological missions. These include communications satellites like Starlink; space stations such as the ISS; scientific satellites like the Hubble; Earth observation satellites from companies like Planet Labs, Umbra, and HawkEye 360; GPS; miniature CubeSats for education and research; and military/defense satellites.

Loading next visibility...
Identifier
65088, 2025-167L
Orbit
LEO
Country
Flag of USUS
Related business
Manufacturer
SpaceX/Seattle
Mission
Operational Commercial Communications
Bus & Motor
STARLINK V2MO, Unknown motor
Mass
575 kg wet, ~530 kg dry
Launch date (UTC)
2025-08-04 (11 months ago)
Launch vehicle
FALCON 9
Launch site
Air Force Eastern Test Range (AFETR)
Object type
Payload
Rocket body
Debris
Shape & HBR
Box + 2 Pan, 17.7 m
Radar Cross Section
36.964 m², Large (>1 m²)

Expand to show TLE details & history
Last TLE update: 7 hours ago

TLE from 7 hours ago
0 STARLINK-34594
1 65088U 25167L   26174.94358100  .00009653  00000-0  33746-3 0  9997
2 65088  53.1605 253.4183 0000832  86.8251 273.2845 15.30213715 49741
Epoch: 2026-06-23T22:38Z
TLE epoch observation values (Epoch: 2026-06-23T22:38:45.398Z)
Latitude
-0.00001°
Longitude
1.62124°
Altitude
476.041 km
Speed
7.629 km/s
True Right ascension
16h 53m 40s
True Declination
0° 00' 00"
Sunlit
Object was in full shadow at epoch
Visualization orbit readout
Latitude
Unknown
Longitude
Unknown
Altitude
Unknown
Speed
Unknown
Apparent Right ascension
Unknown
Apparent Declination
Unknown
Sunlit
N/A
Visualization observer readout
Local Sidereal Time
16:42:32
Azimuth
Unknown
Elevation
Unknown
Doppler factor
Unknown
Orbital elements
Apogee altitude
476.001 km
Perigee altitude
474.86 km
Semi-major axis
6,853.567 km
Eccentricity
0.00008
Inclination
53.1605°
RAAN
253.4183°
Arg. of periapsis
86.8251°
True anomaly
273.27498°
Mean anomaly
273.2845°
Eccentric anomaly
273.27974°
Mean motion
3.82532 °/min
Orbital period
94.11 mins
BSTAR
0.00033746
Loading maneuver chart data...
Computing Atmospheric mass density...
Loading historical data...
Loading historical data...
Loading historical data...
Loading historical data...
Loading historical data...
Loading historical data...
Loading historical data...

Documentation

Showing up to 5 results
|